Location: Bussy-Saint-Georges
(48.8410°N, 2.7017°E)
Time: 22:39:19
(UTC+00:00)

Meteor 2-10 Rocket - Pass Details

Date: 18 October 2021
Orbit: 733 x 885 km, 81.2° (Epoch: 07 December)

Event Time Altitude Azimuth Distance (km) Brightness Sun altitude
Rises 19:54:06 0° 206° (SSW) 3,433 6.9 -30.1°
Reaches altitude 10° 19:56:39 10° 212° (SSW) 2,483 6.2 -30.5°
Maximum altitude 20:02:06 50° 287° (WNW) 1,057 4.4 -31.3°
Drops below altitude 10° 20:07:24 10° 3° (N) 2,404 6.3 -32.1°
Sets 20:09:50 0° 9° (N) 3,315 7.0 -32.5°
